#�ϑ�����,���ϕ���,���ϕ���,�ő啗��,�ő啗����������,�ő�u�ԕ���,�ő�u�ԕ�����������
#(�N����),(m/s)   ,(16����),(m/s)   ,(16����)        ,(m/s)       ,(16����)            
2014/2/5 0:01,1.6,4,1.7,15,1.9,7
2014/2/5 0:02,1.4,5,1.6,15,2,7
2014/2/5 0:03,1.3,5,1.4,14,1.3,1
2014/2/5 0:04,1.1,5,1.3,14,1,1
2014/2/5 0:05,1.1,6,1.1,2,1,10
2014/2/5 0:06,1.2,7,1.2,2,1.8,9
2014/2/5 0:07,1.2,7,1.2,2,2.5,9
2014/2/5 0:08,1.1,8,1.2,2,2.1,8
2014/2/5 0:09,1,8,1.1,2,2.4,10
2014/2/5 0:10,0.9,9,1,3,1.8,9
2014/2/5 0:11,0.9,9,0.9,4,1.3,16
2014/2/5 0:12,0.9,10,0.9,5,1.3,16
2014/2/5 0:13,0.9,10,0.9,5,0.8,4
2014/2/5 0:14,0.9,9,0.9,7,1.3,7
2014/2/5 0:15,0.9,9,0.9,7,1.5,9
2014/2/5 0:16,1,9,1,7,2.2,10
2014/2/5 0:17,1.2,9,1.2,7,4.1,12
2014/2/5 0:18,1.2,10,1.2,9,4.4,11
2014/2/5 0:19,1.3,10,1.3,10,3.6,11
2014/2/5 0:20,1.4,10,1.4,10,3.6,10
2014/2/5 0:21,1.6,10,1.6,10,2.9,11
2014/2/5 0:22,1.8,10,1.8,10,4.5,9
2014/2/5 0:23,1.9,10,1.9,10,3.8,10
2014/2/5 0:24,2,10,2,10,4.4,11
2014/2/5 0:25,2,10,2,10,2.6,9
2014/2/5 0:26,2.2,11,2.2,11,5.1,11
2014/2/5 0:27,2,10,2.2,11,2.9,10
2014/2/5 0:28,2.1,10,2.1,11,4.2,10
2014/2/5 0:29,2.2,10,2.2,11,4.4,10
2014/2/5 0:30,2.3,11,2.3,11,4.3,10
2014/2/5 0:31,2.3,10,2.3,11,5.1,10
2014/2/5 0:32,2.4,10,2.4,10,4.4,10
2014/2/5 0:33,2.5,11,2.5,11,3.7,10
2014/2/5 0:34,2.5,10,2.5,11,3.3,10
2014/2/5 0:35,2.5,10,2.5,11,3.1,9
2014/2/5 0:36,2.3,10,2.5,11,2.4,9
2014/2/5 0:37,2.3,10,2.3,11,2.9,9
2014/2/5 0:38,2.2,10,2.3,11,2.7,9
2014/2/5 0:39,2,10,2.2,11,2.2,9
2014/2/5 0:40,1.9,10,2,11,3,9
2014/2/5 0:41,1.8,10,1.9,11,3.7,9
2014/2/5 0:42,1.6,10,1.8,11,3.1,9
2014/2/5 0:43,1.5,10,1.5,11,2.5,10
2014/2/5 0:44,1.5,10,1.5,10,2.9,10
2014/2/5 0:45,1.5,10,1.5,10,2.9,9
2014/2/5 0:46,1.6,10,1.6,10,2.9,11
2014/2/5 0:47,1.6,10,1.6,10,3.1,9
2014/2/5 0:48,1.6,10,1.6,10,3.1,10
2014/2/5 0:49,1.8,10,1.8,10,3.1,10
2014/2/5 0:50,1.8,10,1.8,10,3,10
2014/2/5 0:51,1.8,10,1.8,10,2.6,9
2014/2/5 0:52,1.7,10,1.8,10,2,9
2014/2/5 0:53,1.6,10,1.7,10,0.6,16
2014/2/5 0:54,1.5,11,1.6,10,0.9,12
2014/2/5 0:55,1.4,11,1.5,10,1.3,11
2014/2/5 0:56,1.2,11,1.4,10,1.1,9
2014/2/5 0:57,1,11,1.2,10,1,16
2014/2/5 0:58,0.9,12,1,10,1.1,1
2014/2/5 0:59,0.7,12,0.9,10,1.1,14
2014/2/5 1:00,0.6,13,0.7,10,0.3,13
2014/2/5 1:01,0.5,13,0.6,10,0.8,15
2014/2/5 1:02,0.5,14,0.5,10,0.9,15
2014/2/5 1:03,0.4,14,0.5,10,0.6,3
2014/2/5 1:04,0.5,14,0.5,11,2.4,15
2014/2/5 1:05,0.5,15,0.6,11,1.8,16
2014/2/5 1:06,0.6,15,0.6,11,1.5,16
2014/2/5 1:07,0.6,15,0.6,11,1.3,16
2014/2/5 1:08,0.6,15,0.6,12,1.3,16
2014/2/5 1:09,0.7,16,0.7,12,1.8,16
2014/2/5 1:10,0.7,16,0.7,15,0.8,1
2014/2/5 1:11,0.7,16,0.7,15,0.6,10
2014/2/5 1:12,0.7,16,0.7,15,1.3,12
2014/2/5 1:13,0.8,15,0.8,15,1.6,11
2014/2/5 1:14,0.7,14,0.8,15,1.3,13
2014/2/5 1:15,0.8,13,0.8,15,1.9,11
2014/2/5 1:16,0.8,13,0.8,15,1.8,12
2014/2/5 1:17,0.8,12,0.8,15,1.4,12
2014/2/5 1:18,0.8,12,0.8,15,1.5,13
2014/2/5 1:19,0.7,12,0.8,15,2.1,7
2014/2/5 1:20,0.9,11,0.9,12,4.1,10
2014/2/5 1:21,1.1,12,1.1,12,3.2,10
2014/2/5 1:22,1.2,12,1.2,12,2.4,12
2014/2/5 1:23,1.2,12,1.2,12,2.2,11
2014/2/5 1:24,1.1,12,1.2,12,1,13
2014/2/5 1:25,1.2,12,1.2,12,2.9,1
2014/2/5 1:26,1.2,12,1.2,12,3.2,12
2014/2/5 1:27,1.4,12,1.4,12,3.3,9
2014/2/5 1:28,1.6,12,1.6,12,4.7,10
2014/2/5 1:29,1.8,12,1.8,12,5.7,9
2014/2/5 1:30,1.8,12,1.9,12,4.1,9
2014/2/5 1:31,1.9,12,1.9,12,3.3,11
2014/2/5 1:32,1.9,12,1.9,12,3,11
2014/2/5 1:33,1.9,11,1.9,12,2,8
2014/2/5 1:34,2,11,2,11,3.9,9
2014/2/5 1:35,2,11,2,11,2.5,13
2014/2/5 1:36,2,11,2,11,2,12
2014/2/5 1:37,1.8,10,1.9,11,0.6,13
2014/2/5 1:38,1.6,10,1.7,11,1.8,9
2014/2/5 1:39,1.5,10,1.6,11,2.7,9
2014/2/5 1:40,1.3,10,1.5,11,2.6,11
2014/2/5 1:41,1.2,11,1.3,11,1.1,14
2014/2/5 1:42,1,11,1.1,11,2,11
2014/2/5 1:43,1.3,11,1.3,11,5.5,10
2014/2/5 1:44,1.3,11,1.3,11,4.2,10
2014/2/5 1:45,1.4,11,1.4,11,3,12
2014/2/5 1:46,1.5,11,1.5,11,2.9,10
2014/2/5 1:47,1.5,11,1.5,10,1.9,10
2014/2/5 1:48,1.6,11,1.6,10,3.7,12
2014/2/5 1:49,1.6,11,1.7,11,3.3,12
2014/2/5 1:50,1.6,12,1.6,11,1.8,13
2014/2/5 1:51,1.7,12,1.7,11,1.8,14
2014/2/5 1:52,1.6,12,1.7,11,0.9,8
2014/2/5 1:53,1.4,12,1.6,11,2.6,12
2014/2/5 1:54,1.4,12,1.4,11,1.8,14
2014/2/5 1:55,1.3,12,1.4,11,3,14
2014/2/5 1:56,1.2,13,1.3,11,1.4,11
2014/2/5 1:57,1.2,12,1.2,11,1.6,9
2014/2/5 1:58,1.2,12,1.2,11,1.4,11
2014/2/5 1:59,1.1,12,1.1,12,1.8,11
2014/2/5 2:00,1,12,1.1,12,1.4,10
2014/2/5 2:01,1,12,1,12,2.9,8
2014/2/5 2:02,1.2,12,1.2,12,3.3,10
2014/2/5 2:03,1.3,12,1.3,12,3.7,11
2014/2/5 2:04,1.4,12,1.4,12,2.2,11
2014/2/5 2:05,1.3,11,1.4,12,2.5,10
2014/2/5 2:06,1.4,11,1.4,12,3.5,13
2014/2/5 2:07,1.5,11,1.5,11,3.7,12
2014/2/5 2:08,1.6,11,1.6,11,5.1,9
2014/2/5 2:09,1.8,11,1.8,11,5.1,10
2014/2/5 2:10,2,11,2,11,3.7,12
2014/2/5 2:11,2.1,12,2.1,11,3.5,15
2014/2/5 2:12,2.2,12,2.2,12,3.5,15
2014/2/5 2:13,2.1,13,2.2,12,3.9,15
2014/2/5 2:14,2.2,13,2.2,12,3.2,13
2014/2/5 2:15,2.3,13,2.3,13,3.2,14
2014/2/5 2:16,2.3,13,2.4,13,2.4,13
2014/2/5 2:17,2.2,13,2.3,13,2.1,15
2014/2/5 2:18,2.2,14,2.2,13,3.7,15
2014/2/5 2:19,2,14,2.2,13,2.4,13
2014/2/5 2:20,1.9,14,2,13,2.4,14
2014/2/5 2:21,1.8,14,1.9,13,3.1,12
2014/2/5 2:22,1.7,13,1.8,13,2.1,10
2014/2/5 2:23,1.7,13,1.7,13,3.1,12
2014/2/5 2:24,1.6,13,1.7,13,2.2,12
2014/2/5 2:25,1.6,13,1.6,13,2.7,12
2014/2/5 2:26,1.7,13,1.7,13,4.1,12
2014/2/5 2:27,1.8,13,1.8,13,3.3,10
2014/2/5 2:28,1.8,12,1.8,14,3.7,10
2014/2/5 2:29,1.9,12,1.9,14,3.9,11
2014/2/5 2:30,2,12,2,12,4.4,11
2014/2/5 2:31,2,12,2.1,12,3.5,13
2014/2/5 2:32,2.1,12,2.1,12,3.2,14
2014/2/5 2:33,2.1,12,2.2,12,3.5,11
2014/2/5 2:34,2.3,12,2.3,12,4.2,13
2014/2/5 2:35,2.4,12,2.4,12,4.4,12
2014/2/5 2:36,2.2,12,2.4,12,2.4,12
2014/2/5 2:37,2.2,12,2.2,12,4.4,11
2014/2/5 2:38,2.3,12,2.3,12,4.1,11
2014/2/5 2:39,2.3,12,2.3,12,3.3,9
2014/2/5 2:40,2.2,12,2.3,12,3.6,10
2014/2/5 2:41,2.2,12,2.2,12,3.2,9
2014/2/5 2:42,2,12,2.2,12,1.3,11
2014/2/5 2:43,1.9,11,2,12,2.4,9
2014/2/5 2:44,1.8,11,1.9,12,3.3,9
2014/2/5 2:45,1.6,11,1.7,12,2.7,11
2014/2/5 2:46,1.7,11,1.7,12,2.4,12
2014/2/5 2:47,1.6,11,1.7,12,2.4,10
2014/2/5 2:48,1.5,11,1.6,12,3,10
2014/2/5 2:49,1.5,11,1.5,12,2.7,11
2014/2/5 2:50,1.5,11,1.5,12,3.1,10
2014/2/5 2:51,1.4,11,1.5,12,3.2,11
2014/2/5 2:52,1.7,11,1.7,12,4.3,10
2014/2/5 2:53,1.8,11,1.8,11,3,8
2014/2/5 2:54,1.7,11,1.8,11,2.7,14
2014/2/5 2:55,1.8,12,1.8,11,3.2,13
2014/2/5 2:56,1.9,11,1.9,11,3.2,11
2014/2/5 2:57,1.9,11,1.9,11,3.5,10
2014/2/5 2:58,1.9,11,2,11,2.9,9
2014/2/5 2:59,1.9,11,2,11,4.7,11
2014/2/5 3:00,1.9,11,1.9,11,2.6,10
2014/2/5 3:01,1.9,11,1.9,11,2,9
2014/2/5 3:02,1.7,11,1.9,11,2,10
2014/2/5 3:03,1.6,11,1.7,11,1.5,11
2014/2/5 3:04,1.7,11,1.7,11,2.1,12
2014/2/5 3:05,1.6,11,1.7,11,2.2,12
2014/2/5 3:06,1.5,11,1.6,11,2.1,11
2014/2/5 3:07,1.5,11,1.5,11,2.6,11
2014/2/5 3:08,1.5,11,1.6,11,3.1,11
2014/2/5 3:09,1.5,11,1.5,11,3.1,10
2014/2/5 3:10,1.5,11,1.5,11,3.9,11
2014/2/5 3:11,1.6,11,1.6,11,3,9
2014/2/5 3:12,1.7,11,1.7,11,3.2,12
2014/2/5 3:13,1.8,11,1.8,11,3.2,10
2014/2/5 3:14,1.9,11,1.9,11,2.7,11
2014/2/5 3:15,1.9,11,1.9,11,2.6,12
2014/2/5 3:16,1.8,11,1.9,11,1.9,14
2014/2/5 3:17,1.7,11,1.8,11,1.4,9
2014/2/5 3:18,1.6,11,1.7,11,1.1,8
2014/2/5 3:19,1.5,11,1.6,11,1.5,13
2014/2/5 3:20,1.5,12,1.5,11,3.1,12
2014/2/5 3:21,1.5,12,1.5,11,2.7,12
2014/2/5 3:22,1.5,12,1.5,11,2.6,12
2014/2/5 3:23,1.6,12,1.6,11,3.7,12
2014/2/5 3:24,1.5,12,1.6,11,3.6,10
2014/2/5 3:25,1.5,12,1.5,11,2.6,13
2014/2/5 3:26,1.4,12,1.5,11,1.6,16
2014/2/5 3:27,1.4,13,1.4,11,0.9,15
2014/2/5 3:28,1.4,13,1.4,11,1,13
2014/2/5 3:29,1.4,13,1.4,12,2.2,12
2014/2/5 3:30,1.5,13,1.5,12,3,12
2014/2/5 3:31,1.5,12,1.5,12,3,10
2014/2/5 3:32,1.5,12,1.5,12,3.2,10
2014/2/5 3:33,1.3,12,1.5,12,2.4,9
2014/2/5 3:34,1.2,12,1.3,12,1,3
2014/2/5 3:35,1.2,12,1.2,12,1.3,4
2014/2/5 3:36,1.2,12,1.2,13,1.3,16
2014/2/5 3:37,1.2,12,1.2,13,2,15
2014/2/5 3:38,1.3,12,1.3,13,1.5,15
2014/2/5 3:39,1.3,13,1.3,13,2.2,13
2014/2/5 3:40,1.1,13,1.3,13,2.1,13
2014/2/5 3:41,1,13,1.1,12,1.3,8
2014/2/5 3:42,0.9,13,1,12,2.7,10
2014/2/5 3:43,1,13,1,12,2.5,8
2014/2/5 3:44,1.1,12,1.1,12,2.2,10
2014/2/5 3:45,1.2,12,1.2,12,2.4,9
2014/2/5 3:46,1.2,11,1.2,12,1.9,9
2014/2/5 3:47,1.2,10,1.2,12,2.2,11
2014/2/5 3:48,1.2,10,1.2,12,2.7,9
2014/2/5 3:49,1.2,10,1.3,13,2,9
2014/2/5 3:50,1.3,9,1.3,10,3,11
2014/2/5 3:51,1.3,10,1.3,10,2.5,9
2014/2/5 3:52,1.3,10,1.3,10,1.8,10
2014/2/5 3:53,1.2,10,1.3,10,1.9,16
2014/2/5 3:54,1.1,9,1.2,10,1.3,1
2014/2/5 3:55,0.9,10,1,10,0.8,12
2014/2/5 3:56,0.9,10,0.9,10,2.5,7
2014/2/5 3:57,1.1,9,1.1,10,3.8,7
2014/2/5 3:58,1.2,8,1.2,10,3.3,7
2014/2/5 3:59,1.2,7,1.2,10,2,7
2014/2/5 4:00,1,7,1.1,9,1.4,8
2014/2/5 4:01,1,7,1,10,1.3,10
2014/2/5 4:02,1,7,1,10,0.8,9
2014/2/5 4:03,0.9,7,0.9,10,0.8,5
2014/2/5 4:04,1.1,8,1.1,9,2.6,8
2014/2/5 4:05,1.2,8,1.2,9,3,7
2014/2/5 4:06,1.2,8,1.2,9,2.7,8
2014/2/5 4:07,1,8,1.2,9,1.8,9
2014/2/5 4:08,0.9,8,1,8,0.8,6
2014/2/5 4:09,0.8,8,0.9,8,0.5,6
2014/2/5 4:10,0.7,7,0.8,8,0.3,1
2014/2/5 4:11,0.7,7,0.8,8,1.4,9
2014/2/5 4:12,0.8,7,0.8,8,3.1,9
2014/2/5 4:13,0.9,8,0.9,8,1.9,9
2014/2/5 4:14,0.9,7,0.9,8,3,5
2014/2/5 4:15,0.9,6,0.9,8,3.6,5
2014/2/5 4:16,0.9,6,0.9,8,2.1,15
2014/2/5 4:17,0.9,4,0.9,8,2.5,2
2014/2/5 4:18,0.9,3,0.9,8,1.3,2
2014/2/5 4:19,1.1,1,1.1,1,3,11
2014/2/5 4:20,1.2,14,1.2,16,2.7,10
2014/2/5 4:21,1.3,13,1.3,14,2.6,11
2014/2/5 4:22,1.4,14,1.4,14,4.4,14
2014/2/5 4:23,1.5,14,1.5,14,3.2,16
2014/2/5 4:24,1.6,14,1.6,14,4.7,2
2014/2/5 4:25,1.6,14,1.6,14,3.2,12
2014/2/5 4:26,1.6,13,1.6,14,2.7,8
2014/2/5 4:27,1.6,12,1.7,12,3.9,8
2014/2/5 4:28,1.8,11,1.8,12,3.3,10
2014/2/5 4:29,1.8,11,1.9,11,2.4,9
2014/2/5 4:30,1.9,12,1.9,11,4.9,14
2014/2/5 4:31,2,12,2,12,4.9,14
2014/2/5 4:32,2,12,2,12,3.6,8
2014/2/5 4:33,1.9,11,2,12,3,13
2014/2/5 4:34,1.8,11,1.9,12,3.3,16
2014/2/5 4:35,1.7,12,1.8,12,1.8,15
2014/2/5 4:36,1.7,12,1.7,12,3.1,15
2014/2/5 4:37,1.9,13,1.9,12,6,16
2014/2/5 4:38,2,14,2,12,6.9,15
2014/2/5 4:39,2,14,2,12,3.3,16
2014/2/5 4:40,2,14,2,12,4.2,12
2014/2/5 4:41,2.2,14,2.2,14,6.5,13
2014/2/5 4:42,2.2,14,2.2,14,4.4,12
2014/2/5 4:43,2.3,14,2.3,14,3.6,14
2014/2/5 4:44,2.4,14,2.4,14,5.6,14
2014/2/5 4:45,2.7,14,2.7,14,4.7,15
2014/2/5 4:46,2.7,14,2.7,14,2.9,15
2014/2/5 4:47,2.6,14,2.6,14,3.5,12
2014/2/5 4:48,2.4,13,2.5,14,2.4,13
2014/2/5 4:49,2.3,13,2.3,14,3,9
2014/2/5 4:50,2.3,13,2.4,14,3.8,8
2014/2/5 4:51,1.9,13,2.3,14,1.8,16
2014/2/5 4:52,1.8,13,1.8,14,1.8,13
2014/2/5 4:53,1.7,13,1.8,14,1.8,16
2014/2/5 4:54,1.4,13,1.6,14,1.6,15
2014/2/5 4:55,1,13,1.3,14,0.1,15
2014/2/5 4:56,1,13,1,14,1.5,14
2014/2/5 4:57,0.9,13,1,14,1.4,15
2014/2/5 4:58,0.7,13,0.8,13,0.5,11
2014/2/5 4:59,0.7,13,0.7,13,0.4,13
2014/2/5 5:00,0.6,13,0.6,13,1.3,7
2014/2/5 5:01,0.6,13,0.6,13,2.6,8
2014/2/5 5:02,0.6,13,0.6,13,1.3,13
2014/2/5 5:03,0.6,13,0.6,13,1.6,14
2014/2/5 5:04,0.7,13,0.7,13,3.5,3
2014/2/5 5:05,0.9,14,0.9,12,3.6,15
2014/2/5 5:06,1,14,1,13,4.7,15
2014/2/5 5:07,1,12,1,14,2.5,11
2014/2/5 5:08,1.2,12,1.2,12,4.1,16
2014/2/5 5:09,1.5,16,1.5,16,6.5,16
2014/2/5 5:10,1.7,15,1.7,15,4.4,14
2014/2/5 5:11,1.7,15,1.7,15,3.5,15
2014/2/5 5:12,1.7,15,1.8,15,1.5,10
2014/2/5 5:13,1.8,14,1.8,15,2.1,9
2014/2/5 5:14,1.8,13,1.8,15,2.1,9
2014/2/5 5:15,1.6,12,1.7,15,1,7
2014/2/5 5:16,1.5,13,1.6,15,0.9,2
2014/2/5 5:17,1.5,15,1.5,15,2.4,16
2014/2/5 5:18,1.5,15,1.5,15,2.4,15
2014/2/5 5:19,1.4,15,1.5,15,6,16
2014/2/5 5:20,1.3,15,1.4,15,3,14
2014/2/5 5:21,1.4,14,1.4,15,3.6,15
2014/2/5 5:22,1.5,15,1.5,14,3.8,1
2014/2/5 5:23,1.5,16,1.5,14,2.7,2
2014/2/5 5:24,1.5,16,1.5,13,2,2
2014/2/5 5:25,1.7,16,1.7,16,2.6,16
2014/2/5 5:26,1.8,16,1.8,16,2.7,16
2014/2/5 5:27,1.8,16,1.8,16,2.4,16
2014/2/5 5:28,1.7,16,1.8,16,1.8,8
2014/2/5 5:29,1.6,16,1.7,16,3.7,8
2014/2/5 5:30,1.7,16,1.7,16,2.9,7
2014/2/5 5:31,1.5,16,1.6,16,2,9
2014/2/5 5:32,1.5,16,1.5,16,3.1,10
2014/2/5 5:33,1.4,9,1.5,16,0.8,8
2014/2/5 5:34,1.4,8,1.4,16,2.1,4
2014/2/5 5:35,1.2,8,1.4,16,1.3,5
2014/2/5 5:36,1.1,9,1.2,16,1,8
2014/2/5 5:37,1,9,1.1,16,0.8,11
2014/2/5 5:38,1,9,1,16,1.1,1
2014/2/5 5:39,1,8,1,16,1.9,2
2014/2/5 5:40,0.9,4,1,16,2.2,16
2014/2/5 5:41,1,2,1,16,3.1,16
2014/2/5 5:42,0.9,2,1,14,2.5,2
2014/2/5 5:43,1,1,1,9,2.1,16
2014/2/5 5:44,1,16,1,8,2.7,15
2014/2/5 5:45,1.2,16,1.2,8,3.6,16
2014/2/5 5:46,1.5,16,1.5,16,6.1,16
2014/2/5 5:47,1.8,1,1.8,1,6.2,16
2014/2/5 5:48,2.1,1,2.1,1,7,16
2014/2/5 5:49,2.6,16,2.6,16,8.5,16
2014/2/5 5:50,2.9,16,2.9,16,7.6,16
2014/2/5 5:51,3.1,16,3.1,16,5.6,16
2014/2/5 5:52,3.3,16,3.3,16,6.8,15
2014/2/5 5:53,3.5,16,3.5,16,4.9,14
2014/2/5 5:54,3.8,16,3.8,16,6.8,1
2014/2/5 5:55,4,16,4,16,6.2,15
2014/2/5 5:56,4,16,4.1,16,7,15
2014/2/5 5:57,4,16,4.1,16,5.8,16
2014/2/5 5:58,4.1,16,4.1,16,7.9,16
2014/2/5 5:59,4,16,4.1,16,7.9,16
2014/2/5 6:00,3.8,16,3.9,16,4.8,16
2014/2/5 6:01,3.9,16,3.9,16,5.8,15
2014/2/5 6:02,3.8,16,3.8,16,4.7,15
2014/2/5 6:03,4,15,4,16,6.9,13
2014/2/5 6:04,4,15,4,16,5.2,11
2014/2/5 6:05,3.9,15,4,16,5.5,14
2014/2/5 6:06,3.7,14,3.9,16,3.6,12
2014/2/5 6:07,3.7,14,3.7,16,4.3,13
2014/2/5 6:08,3.7,14,3.8,16,8.1,1
2014/2/5 6:09,3.8,14,3.8,15,7.5,16
2014/2/5 6:10,3.7,14,3.8,15,7.1,16
2014/2/5 6:11,3.5,14,3.7,15,2.9,15
2014/2/5 6:12,3.4,14,3.4,15,4.2,16
2014/2/5 6:13,3.1,15,3.4,15,3.6,1
2014/2/5 6:14,2.9,15,3.1,15,4.2,1
2014/2/5 6:15,2.7,16,2.9,15,3.2,15
2014/2/5 6:16,2.7,16,2.7,14,4.3,15
2014/2/5 6:17,2.7,16,2.7,14,4.8,15
2014/2/5 6:18,2.5,16,2.7,14,4.4,15
2014/2/5 6:19,2.2,16,2.4,14,4.1,16
2014/2/5 6:20,2.1,16,2.1,14,3.5,2
2014/2/5 6:21,2.2,16,2.2,14,4.3,16
2014/2/5 6:22,2.2,16,2.3,14,4.2,15
2014/2/5 6:23,2.2,16,2.2,15,3.8,1
2014/2/5 6:24,2.4,16,2.4,15,4.4,16
2014/2/5 6:25,2.4,16,2.4,16,4.7,15
2014/2/5 6:26,2.5,16,2.5,16,2.7,15
2014/2/5 6:27,2.4,16,2.5,16,4.3,15
2014/2/5 6:28,2.6,16,2.6,16,5.6,15
2014/2/5 6:29,2.7,16,2.8,16,6,15
2014/2/5 6:30,3,15,3,15,7.2,15
2014/2/5 6:31,3.2,16,3.2,15,9.8,16
2014/2/5 6:32,3.5,16,3.5,16,7.6,16
2014/2/5 6:33,3.6,15,3.6,15,6.8,16
2014/2/5 6:34,3.7,15,3.7,15,6.2,15
2014/2/5 6:35,3.9,15,3.9,15,7.1,16
2014/2/5 6:36,4.3,16,4.3,16,8.2,16
2014/2/5 6:37,4.5,16,4.5,16,7.9,16
2014/2/5 6:38,4.4,16,4.5,16,5.4,14
2014/2/5 6:39,4.3,16,4.4,16,4.2,16
2014/2/5 6:40,4.2,16,4.4,16,4.2,16
2014/2/5 6:41,3.9,16,4.2,16,3.3,16
2014/2/5 6:42,3.4,16,3.8,16,2,1
2014/2/5 6:43,3.2,16,3.4,16,1.5,16
2014/2/5 6:44,2.9,16,3.2,16,2.1,2
2014/2/5 6:45,2.7,16,2.9,16,3.7,16
2014/2/5 6:46,2.4,16,2.6,16,4.7,15
2014/2/5 6:47,2.3,16,2.4,16,7,14
2014/2/5 6:48,2.4,16,2.4,16,4.5,1
2014/2/5 6:49,2.3,16,2.4,16,4.5,1
2014/2/5 6:50,2.2,16,2.3,16,3.9,14
2014/2/5 6:51,2.2,16,2.2,16,3,16
2014/2/5 6:52,2.2,16,2.2,16,3,13
2014/2/5 6:53,2.3,15,2.3,16,3.2,14
2014/2/5 6:54,2.4,15,2.4,16,2.7,14
2014/2/5 6:55,2.4,15,2.5,16,2.6,14
2014/2/5 6:56,2.3,15,2.4,15,3.6,16
2014/2/5 6:57,2,15,2.3,15,2.7,8
2014/2/5 6:58,1.8,14,2,15,2.7,9
2014/2/5 6:59,1.6,14,1.8,15,2.4,8
2014/2/5 7:00,1.5,13,1.6,15,2,12
2014/2/5 7:01,1.6,13,1.6,15,3.8,13
2014/2/5 7:02,1.7,13,1.7,15,3.6,14
2014/2/5 7:03,1.6,12,1.6,15,1.6,13
2014/2/5 7:04,1.5,12,1.6,15,2.2,10
2014/2/5 7:05,1.5,12,1.5,15,2.1,11
2014/2/5 7:06,1.5,11,1.5,15,1.9,12
2014/2/5 7:07,1.6,12,1.6,15,4.2,13
2014/2/5 7:08,1.8,12,1.8,14,4.9,10
2014/2/5 7:09,2,12,2,12,3.3,11
2014/2/5 7:10,2,12,2,12,1.8,10
2014/2/5 7:11,1.8,12,1.9,12,3.1,1
2014/2/5 7:12,1.9,12,1.9,12,4.3,15
2014/2/5 7:13,2.1,12,2.1,12,6.4,14
2014/2/5 7:14,2.3,13,2.3,12,5.5,15
2014/2/5 7:15,2.4,13,2.4,13,4.4,15
2014/2/5 7:16,2.4,14,2.5,13,3.3,15
2014/2/5 7:17,2.4,14,2.5,13,2.1,12
2014/2/5 7:18,2.4,14,2.4,13,4.2,14
2014/2/5 7:19,2.3,14,2.3,13,2.7,14
2014/2/5 7:20,2.3,14,2.3,13,3,16
2014/2/5 7:21,2.3,14,2.3,13,1.5,13
2014/2/5 7:22,2.2,14,2.3,13,3.2,10
2014/2/5 7:23,2.1,14,2.2,13,3.6,10
2014/2/5 7:24,1.7,13,2,13,0.9,13
2014/2/5 7:25,1.6,13,1.7,13,3,11
2014/2/5 7:26,1.6,12,1.6,14,2.5,12
2014/2/5 7:27,1.6,12,1.6,14,1.9,10
2014/2/5 7:28,1.4,12,1.5,14,2.6,13
2014/2/5 7:29,1.4,12,1.4,14,2.4,13
2014/2/5 7:30,1.3,12,1.4,14,2.4,10
2014/2/5 7:31,1.4,11,1.4,14,2,10
2014/2/5 7:32,1.4,11,1.5,14,3.2,10
2014/2/5 7:33,1.3,11,1.4,14,1.8,12
2014/2/5 7:34,1.4,11,1.4,13,2.2,14
2014/2/5 7:35,1.3,11,1.4,13,1.1,8
2014/2/5 7:36,1.3,11,1.3,12,1.9,11
2014/2/5 7:37,1.2,11,1.3,12,1.8,12
2014/2/5 7:38,1.1,11,1.2,11,1.3,12
2014/2/5 7:39,1.1,12,1.1,11,1.4,14
2014/2/5 7:40,1.1,12,1.2,11,2.4,16
2014/2/5 7:41,1.1,12,1.1,11,2.2,14
2014/2/5 7:42,1.1,12,1.1,11,1.6,13
2014/2/5 7:43,1.1,12,1.1,11,2,12
2014/2/5 7:44,1.2,12,1.2,11,2.1,12
2014/2/5 7:45,1.2,12,1.2,11,2,11
2014/2/5 7:46,1.1,12,1.2,11,1.9,9
2014/2/5 7:47,1.2,12,1.2,11,2.9,12
2014/2/5 7:48,1.3,12,1.3,12,2.4,12
2014/2/5 7:49,1.4,12,1.4,12,2.6,12
2014/2/5 7:50,1.4,12,1.4,12,2.2,15
2014/2/5 7:51,1.4,12,1.4,12,3,11
2014/2/5 7:52,1.4,12,1.4,12,1.9,9
2014/2/5 7:53,1.5,11,1.5,11,3.2,11
2014/2/5 7:54,1.5,11,1.5,11,3.5,12
2014/2/5 7:55,1.6,11,1.6,11,3.5,13
2014/2/5 7:56,1.8,12,1.8,12,4.8,13
2014/2/5 7:57,1.7,12,1.8,12,2.1,13
2014/2/5 7:58,1.6,12,1.7,12,0.9,15
2014/2/5 7:59,1.5,12,1.6,12,1,16
2014/2/5 8:00,1.5,12,1.5,12,2.7,14
2014/2/5 8:01,1.5,12,1.5,12,2.7,9
2014/2/5 8:02,1.5,12,1.5,12,1.1,9
2014/2/5 8:03,1.4,12,1.5,12,2.7,14
2014/2/5 8:04,1.4,12,1.4,12,2.6,13
2014/2/5 8:05,1.2,12,1.3,12,2.5,14
2014/2/5 8:06,1.1,12,1.2,12,1.4,11
2014/2/5 8:07,1,12,1.1,12,1,6
2014/2/5 8:08,1,12,1,12,1.1,12
2014/2/5 8:09,1.1,12,1.1,12,2.7,13
2014/2/5 8:10,1.1,12,1.1,12,2.2,13
2014/2/5 8:11,1,12,1,12,2.7,12
2014/2/5 8:12,1.2,12,1.2,12,3.5,13
2014/2/5 8:13,1.2,12,1.3,12,2.5,14
2014/2/5 8:14,1.2,12,1.2,12,1.3,11
2014/2/5 8:15,1.1,12,1.2,12,1.1,13
2014/2/5 8:16,1.1,12,1.1,12,0.9,12
2014/2/5 8:17,1.1,12,1.1,12,0.8,12
2014/2/5 8:18,1.1,13,1.1,12,1.5,15
2014/2/5 8:19,1.1,13,1.2,12,1.4,10
2014/2/5 8:20,1,12,1.1,12,1.4,9
2014/2/5 8:21,1.1,12,1.1,12,2.7,10
2014/2/5 8:22,0.9,12,1.1,12,2.7,9
2014/2/5 8:23,1.1,11,1.1,12,4.5,10
2014/2/5 8:24,1.4,11,1.4,11,5.5,11
2014/2/5 8:25,1.4,11,1.4,11,2.7,10
2014/2/5 8:26,1.6,11,1.6,11,3.2,11
2014/2/5 8:27,1.7,11,1.7,11,2.2,10
2014/2/5 8:28,1.7,10,1.7,11,2.7,10
2014/2/5 8:29,1.9,10,1.9,10,3.5,9
2014/2/5 8:30,2,10,2,10,4.5,9
2014/2/5 8:31,2.1,10,2.1,10,4.2,10
2014/2/5 8:32,2.3,10,2.3,10,3.8,11
2014/2/5 8:33,2.2,10,2.3,10,3.9,10
2014/2/5 8:34,2.1,11,2.2,10,3.8,10
2014/2/5 8:35,2.2,11,2.2,10,2.5,12
2014/2/5 8:36,2,11,2.2,10,0.9,7
2014/2/5 8:37,1.9,11,2,10,1.8,9
2014/2/5 8:38,1.9,11,1.9,10,2.5,11
2014/2/5 8:39,1.8,11,1.9,10,3.2,10
2014/2/5 8:40,1.8,11,1.8,10,3.1,10
2014/2/5 8:41,1.7,11,1.8,10,3.5,10
2014/2/5 8:42,1.7,11,1.7,10,4.9,9
2014/2/5 8:43,1.5,11,1.7,10,2.7,14
2014/2/5 8:44,1.4,11,1.5,11,2,15
2014/2/5 8:45,1.5,11,1.5,11,3.9,10
2014/2/5 8:46,1.6,11,1.6,11,3.7,8
2014/2/5 8:47,1.7,11,1.7,11,4.3,10
2014/2/5 8:48,1.9,10,1.9,11,4.3,10
2014/2/5 8:49,1.9,10,1.9,10,3.2,8
2014/2/5 8:50,1.9,10,1.9,10,2.9,10
2014/2/5 8:51,1.9,10,1.9,10,3.1,10
2014/2/5 8:52,1.9,10,1.9,10,4.2,8
2014/2/5 8:53,1.8,10,1.9,10,2.9,10
2014/2/5 8:54,1.8,10,1.8,10,2.1,8
2014/2/5 8:55,1.7,10,1.8,10,2.2,8
2014/2/5 8:56,1.6,10,1.6,10,3.1,10
2014/2/5 8:57,1.7,9,1.7,10,4.8,9
2014/2/5 8:58,1.9,9,1.9,10,5.5,8
2014/2/5 8:59,1.9,9,1.9,10,4.4,8
2014/2/5 9:00,2,10,2,9,3.9,10
2014/2/5 9:01,2.1,10,2.1,10,5.2,8
2014/2/5 9:02,2.2,10,2.2,10,4.9,9
2014/2/5 9:03,2.4,10,2.4,10,4.7,10
2014/2/5 9:04,2.5,9,2.5,9,4.1,8
2014/2/5 9:05,2.7,9,2.7,9,6.3,9
2014/2/5 9:06,2.8,9,2.8,9,6.5,9
2014/2/5 9:07,2.9,10,2.9,9,5.8,9
2014/2/5 9:08,2.7,10,2.8,9,5.2,9
2014/2/5 9:09,2.6,10,2.7,9,4.2,9
2014/2/5 9:10,2.7,10,2.7,9,6,10
2014/2/5 9:11,2.8,10,2.8,9,5.7,11
2014/2/5 9:12,2.8,10,2.8,9,5,10
2014/2/5 9:13,2.9,10,2.9,9,5.1,10
2014/2/5 9:14,3,10,3,10,4.7,10
2014/2/5 9:15,3,10,3,10,5.6,9
2014/2/5 9:16,3.1,10,3.1,10,6.4,11
2014/2/5 9:17,3,10,3.1,10,3.5,12
2014/2/5 9:18,2.9,10,3,10,4.5,12
2014/2/5 9:19,3,10,3,10,4.8,10
2014/2/5 9:20,2.9,11,3,10,4.7,11
2014/2/5 9:21,3,11,3,10,5.5,11
2014/2/5 9:22,3,10,3,10,5.6,10
2014/2/5 9:23,2.9,10,3,10,5.1,9
2014/2/5 9:24,3,10,3,10,4.8,11
2014/2/5 9:25,3,10,3,10,5.1,10
2014/2/5 9:26,2.9,10,3,10,4.8,9
2014/2/5 9:27,2.8,10,2.9,10,2,9
2014/2/5 9:28,2.8,10,2.8,10,2.4,10
2014/2/5 9:29,2.6,10,2.8,10,1.6,10
2014/2/5 9:30,2.5,10,2.6,11,3.2,10
2014/2/5 9:31,2.4,10,2.5,11,4.7,10
2014/2/5 9:32,2.4,10,2.4,10,5.8,10
2014/2/5 9:33,2.3,10,2.4,10,4.7,12
2014/2/5 9:34,2.1,10,2.3,10,3.2,8
2014/2/5 9:35,1.8,10,2.1,10,2.6,9
2014/2/5 9:36,1.6,10,1.8,10,2.5,9
2014/2/5 9:37,1.6,10,1.6,10,1.5,11
2014/2/5 9:38,1.5,10,1.6,10,1.3,7
2014/2/5 9:39,1.6,11,1.6,10,2.2,13
2014/2/5 9:40,1.7,11,1.7,10,2.9,12
2014/2/5 9:41,1.7,11,1.7,10,3.2,13
2014/2/5 9:42,1.5,12,1.7,10,3.2,12
2014/2/5 9:43,1.4,12,1.5,10,2.7,10
2014/2/5 9:44,1.3,12,1.4,10,2.2,10
2014/2/5 9:45,1.5,12,1.5,10,4.4,10
2014/2/5 9:46,1.7,12,1.7,11,4.5,9
2014/2/5 9:47,2,12,2,12,4.4,11
2014/2/5 9:48,2.2,11,2.2,11,3.9,10
2014/2/5 9:49,2.3,11,2.3,11,3.7,10
2014/2/5 9:50,2.3,11,2.3,11,3.5,9
2014/2/5 9:51,2.1,10,2.3,11,2.4,10
2014/2/5 9:52,2.1,10,2.1,11,2.7,11
2014/2/5 9:53,2.2,10,2.2,11,2,11
2014/2/5 9:54,2.2,10,2.2,11,2.9,9
2014/2/5 9:55,2.1,10,2.2,11,1.8,10
2014/2/5 9:56,2,10,2.1,11,3.5,10
2014/2/5 9:57,1.8,10,2,11,2.7,9
2014/2/5 9:58,1.7,10,1.8,11,2.4,10
2014/2/5 9:59,1.5,10,1.6,11,2.2,9
2014/2/5 10:00,1.4,10,1.5,11,1.9,9
2014/2/5 10:01,1.4,9,1.4,10,2.4,8
2014/2/5 10:02,1.2,9,1.3,10,1.6,7
2014/2/5 10:03,1.2,8,1.2,10,1.9,7
2014/2/5 10:04,1.2,8,1.2,10,2.5,11
2014/2/5 10:05,1.1,8,1.2,10,1.3,12
2014/2/5 10:06,1,8,1.1,10,1.5,12
2014/2/5 10:07,0.9,8,1,10,1.6,12
2014/2/5 10:08,0.9,9,0.9,10,2.5,8
2014/2/5 10:09,0.9,9,0.9,10,2.4,8
2014/2/5 10:10,1,9,1,10,2.7,8
2014/2/5 10:11,1.1,9,1.1,9,2.6,8
2014/2/5 10:12,1.3,9,1.3,9,3.8,8
2014/2/5 10:13,1.3,9,1.3,9,2.6,8
2014/2/5 10:14,1.4,9,1.4,9,4.2,10
2014/2/5 10:15,1.5,10,1.5,9,3.8,10
2014/2/5 10:16,1.6,10,1.6,10,2.9,11
2014/2/5 10:17,1.7,9,1.7,10,2.9,10
2014/2/5 10:18,1.6,9,1.7,10,1.6,9
2014/2/5 10:19,1.5,10,1.6,10,0.6,12
2014/2/5 10:20,1.5,10,1.5,10,1,11
2014/2/5 10:21,1.4,10,1.4,10,1.3,11
2014/2/5 10:22,1.3,10,1.3,10,4.1,10
2014/2/5 10:23,1.3,10,1.3,10,3.5,9
2014/2/5 10:24,1.3,10,1.3,10,2.9,9
2014/2/5 10:25,1.2,10,1.2,10,2.4,9
2014/2/5 10:26,1.1,10,1.2,10,3.9,9
2014/2/5 10:27,1.1,10,1.1,9,3.3,8
2014/2/5 10:28,1.3,10,1.3,9,3.7,10
2014/2/5 10:29,1.5,10,1.5,9,4.5,10
2014/2/5 10:30,1.7,10,1.7,10,3.6,10
2014/2/5 10:31,1.8,10,1.8,10,3.2,10
2014/2/5 10:32,1.8,10,1.9,10,2.9,13
2014/2/5 10:33,1.8,10,1.8,10,2.9,6
2014/2/5 10:34,1.7,10,1.8,10,2.1,9
2014/2/5 10:35,1.7,11,1.7,10,3.1,13
2014/2/5 10:36,1.7,11,1.8,10,2.2,11
2014/2/5 10:37,1.8,11,1.8,10,3.3,10
2014/2/5 10:38,1.7,11,1.8,10,2.1,9
2014/2/5 10:39,1.5,11,1.7,10,2.2,11
2014/2/5 10:40,1.5,11,1.6,10,3.7,8
2014/2/5 10:41,1.5,10,1.5,10,2.9,9
2014/2/5 10:42,1.4,10,1.5,10,3.5,9
2014/2/5 10:43,1.4,10,1.4,10,3.2,10
2014/2/5 10:44,1.5,10,1.5,11,4.3,8
2014/2/5 10:45,1.6,10,1.6,11,3.7,11
2014/2/5 10:46,1.6,9,1.6,11,3.6,9
2014/2/5 10:47,1.5,9,1.7,11,3.7,10
2014/2/5 10:48,1.7,9,1.7,11,4.8,8
2014/2/5 10:49,1.8,9,1.8,9,3.9,9
2014/2/5 10:50,2,9,2,9,5.5,10
2014/2/5 10:51,2.1,9,2.1,9,5.4,8
2014/2/5 10:52,2.1,9,2.1,9,3.3,9
2014/2/5 10:53,2.1,10,2.1,9,3.2,9
2014/2/5 10:54,2.1,10,2.2,10,2.6,9
2014/2/5 10:55,2.1,9,2.1,10,2.1,8
2014/2/5 10:56,2,9,2.1,10,3.6,8
2014/2/5 10:57,2,9,2,10,2,11
2014/2/5 10:58,1.9,10,2,10,1.5,14
2014/2/5 10:59,1.7,10,1.8,10,2.2,12
2014/2/5 11:00,1.6,11,1.8,10,2.4,12
2014/2/5 11:01,1.5,11,1.6,10,2,12
2014/2/5 11:02,1.4,11,1.5,10,1.9,7
2014/2/5 11:03,1.3,11,1.4,10,2.6,8
2014/2/5 11:04,1.2,11,1.3,10,0.9,9
2014/2/5 11:05,1.3,11,1.3,9,2.7,7
2014/2/5 11:06,1.2,11,1.3,9,2.9,7
2014/2/5 11:07,1.3,10,1.3,9,2.7,8
2014/2/5 11:08,1.3,9,1.3,10,1.6,5
2014/2/5 11:09,1.3,8,1.3,10,1.5,4
2014/2/5 11:10,1.2,7,1.2,11,2.7,1
2014/2/5 11:11,1.2,6,1.2,11,1.8,3
2014/2/5 11:12,1.2,5,1.2,11,2.4,1
2014/2/5 11:13,1.2,4,1.2,11,2.5,1
2014/2/5 11:14,1.4,3,1.4,4,2.7,2
2014/2/5 11:15,1.4,3,1.4,4,2.5,3
2014/2/5 11:16,1.4,2,1.4,4,1.9,2
2014/2/5 11:17,1.4,2,1.4,4,2.4,2
2014/2/5 11:18,1.6,2,1.6,2,3.9,3
2014/2/5 11:19,1.7,2,1.7,2,2.9,4
2014/2/5 11:20,1.8,2,1.8,2,3.2,4
2014/2/5 11:21,1.8,3,1.8,2,2.4,4
2014/2/5 11:22,1.8,3,1.8,2,2.4,2